Manuais instruções SEIKO

Ver o tópico anterior Ver o tópico seguinte Ir em baixo

Manuais instruções SEIKO

Mensagem por the abyss em Ter 21 Mar 2017, 09:47

Boas.

Agora, manuais de instruções SEIKO

http://www.thewatchsite.com/14-user-manual-technical-manual-casing-guide-downloads/13-seiko-calibers-user-operation-manuals.html

Basic Analog Quartz ..> 01-Mar-2011 19:31 266k
COMPASS.pdf 01-Mar-2011 19:31 199k
MAPMETER.pdf 01-Mar-2011 19:41 1.1M
ROTARY SLIDE RULE.pdf 01-Mar-2011 19:47 13.2M
TELEMETER.pdf 01-Mar-2011 20:09 373k

1F20.pdf 01-Mar-2011 18:25 700k
1F21.pdf 01-Mar-2011 18:25 700k
1M20 - E.pdf 01-Mar-2011 18:26 421k
1M20.pdf 01-Mar-2011 18:25 41k
1N00.pdf 01-Mar-2011 18:26 700k
1N01.pdf 01-Mar-2011 18:26 700k
1m20_e.pdf 01-Mar-2011 18:26 421k
2625, 7548 & 7549 - ..> 01-Mar-2011 18:27 2.8M
2625,7548,7549.pdf 01-Mar-2011 18:27 2.8M
2A27, 4J27 & 7C17 - ..> 01-Mar-2011 18:27 160k
2E20.pdf 01-Mar-2011 18:27 700k
2J30.pdf 01-Mar-2011 18:27 700k
2J31.pdf 01-Mar-2011 18:28 700k
2J41.pdf 01-Mar-2011 18:28 700k
3B21-QM.pdf 01-Mar-2011 18:28 1.2M
3B21.pdf 01-Mar-2011 18:29 3.7M
3F30.pdf 01-Mar-2011 18:29 700k
3F31.pdf 01-Mar-2011 18:29 700k
3F81.pdf 01-Mar-2011 18:29 552k
3M21.pdf 01-Mar-2011 18:29 38k
3M22, 5M42 & 5M43 - ..> 01-Mar-2011 18:29 257k
3M22.pdf 01-Mar-2011 18:29 38k
3M62, 5M62 & 5M63 - ..> 01-Mar-2011 18:30 214k
4F32, 8F32 & 8F33 - ..> 01-Mar-2011 18:30 119k
4F32.pdf 01-Mar-2011 18:30 704k
4F56, 8F56 - E.pdf 01-Mar-2011 18:30 1.3M
4F56.pdf 01-Mar-2011 18:30 304k
4J27 & 7C17.pdf 01-Mar-2011 18:30 239k
4J27.pdf 01-Mar-2011 18:30 239k
4J40.pdf 01-Mar-2011 18:31 700k
4J41.pdf 01-Mar-2011 18:31 700k
4J45.pdf 01-Mar-2011 18:31 573k
4J51.pdf 01-Mar-2011 18:31 700k
4L25.pdf 01-Mar-2011 18:31 728k
4M21 - E.pdf 01-Mar-2011 18:31 594k
4M21.pdf 01-Mar-2011 18:31 27k
4M61.pdf 01-Mar-2011 18:31 60k
4S.pdf 01-Mar-2011 18:31 37k
4S15.pdf 01-Mar-2011 18:32 752k
4S27.pdf 01-Mar-2011 18:32 485k
4S36.pdf 01-Mar-2011 18:32 1.1M
4m21_e_g.pdf 01-Mar-2011 18:32 594k
5B21.pdf 01-Mar-2011 18:32 824k
5D22.pdf 01-Mar-2011 18:36 9.5M
5D44 - E.pdf 01-Mar-2011 18:33 1.7M
5D44-BP.pdf 01-Mar-2011 18:35 4.9M
5D88.pdf 01-Mar-2011 18:38 6.2M
5E30.pdf 01-Mar-2011 18:36 700k
5E31.pdf 01-Mar-2011 18:36 700k
5E32.pdf 01-Mar-2011 18:37 700k
5E39.pdf 01-Mar-2011 18:37 700k
5E42.pdf 01-Mar-2011 18:38 700k
5E61.pdf 01-Mar-2011 18:38 700k
5J21.pdf 01-Mar-2011 18:38 26k
5J22 & 5J32.pdf 01-Mar-2011 18:38 38k
5J22 - E.pdf 01-Mar-2011 18:38 209k
5J32C - E.pdf 01-Mar-2011 18:38 206k
5K22 & 5K25.pdf 01-Mar-2011 18:38 59k
5K25 - E.pdf 01-Mar-2011 18:39 700k
5M23.pdf 01-Mar-2011 18:39 493k
5M42 & 5M43.pdf 01-Mar-2011 18:39 452k
5M43L.pdf 01-Mar-2011 18:39 1.2M
5M43M.pdf 01-Mar-2011 18:39 825k
5M45.pdf 01-Mar-2011 18:39 602k
5M47.pdf 01-Mar-2011 18:40 1.1M
5M62 & 5M63.pdf 01-Mar-2011 18:40 38k
5M63D.pdf 01-Mar-2011 18:40 38k
5M65.pdf 01-Mar-2011 18:40 274k
5M65CCS.pdf 01-Mar-2011 18:40 40k
5M65D.pdf 01-Mar-2011 18:40 278k
5R64 & 5R65 - E.pdf 01-Mar-2011 18:40 249k
5R65 & 5R66.pdf 01-Mar-2011 18:41 1.3M
5R66 & 5R67 - E.pdf 01-Mar-2011 18:40 492k
5R66L.pdf 01-Mar-2011 18:44 9.9M
5R66M.pdf 01-Mar-2011 18:41 1.2M
5R85.pdf 01-Mar-2011 18:43 5.4M
5R86.pdf 01-Mar-2011 18:46 6.5M
5T24.pdf 01-Mar-2011 18:45 814k
5T32.pdf 01-Mar-2011 18:45 378k
5T82.pdf 01-Mar-2011 18:46 1.1M
5T82CCS.pdf 01-Mar-2011 18:46 40k
5Y63.pdf 01-Mar-2011 18:46 429k
5Y66 & 5Y67.pdf 01-Mar-2011 18:46 429k
5Y67 - E.pdf 01-Mar-2011 18:46 224k
5Y75 - E.pdf 01-Mar-2011 18:46 272k
5Y85 & 5Y89.pdf 01-Mar-2011 18:46 701k
5Y89 - E.pdf 01-Mar-2011 18:46 211k
5k25_e_g.pdf 01-Mar-2011 18:39 700k
6810.pdf 01-Mar-2011 18:46 37k
6A32 - E.pdf 01-Mar-2011 18:46 146k
6A32.pdf 01-Mar-2011 18:47 651k
6G28.pdf 01-Mar-2011 18:47 700k
6G34.pdf 01-Mar-2011 18:47 423k
6M15 - E.pdf 01-Mar-2011 18:47 1.0M
6M25 & 6M26 - E.pdf 01-Mar-2011 18:47 588k
6M26.pdf 01-Mar-2011 18:47 240k
6R15 - E.pdf 01-Mar-2011 18:48 500k
6R15 Compass.pdf 01-Mar-2011 18:48 949k
6R15 Jump-Hour.pdf 01-Mar-2011 18:48 926k
6R15 diver.pdf 01-Mar-2011 18:48 660k
6R15.pdf 01-Mar-2011 18:48 844k
6R20 - E.pdf 01-Mar-2011 18:49 818k
6R20.pdf 01-Mar-2011 18:49 907k
6R21.pdf 01-Mar-2011 18:49 907k
6R24.pdf 01-Mar-2011 18:51 4.3M
6S28.pdf 01-Mar-2011 18:50 4.0M
6S37 - E.pdf 01-Mar-2011 18:51 3.4M
6S37.pdf 01-Mar-2011 18:51 1.4M
6S37b.pdf 01-Mar-2011 18:53 4.0M
7002 - E.pdf 01-Mar-2011 18:52 530k
7549 - E.pdf 01-Mar-2011 18:53 2.8M
7740.pdf 01-Mar-2011 18:53 700k
7741.pdf 01-Mar-2011 18:54 700k
7742.pdf 01-Mar-2011 18:54 700k
7749.pdf 01-Mar-2011 18:54 700k
7A38 - E.pdf 01-Mar-2011 18:54 1.3M
7B22, 7B32, 7B37 & ..> 01-Mar-2011 18:57 8.9M
7B24-QM.pdf 01-Mar-2011 18:55 1.3M
7B24.pdf 01-Mar-2011 19:00 11.3M
7B25-QM.pdf 01-Mar-2011 18:58 1.4M
7B25.pdf 01-Mar-2011 19:00 3.9M
7B25CCS.pdf 01-Mar-2011 19:00 40k
7B42-QM.pdf 01-Mar-2011 19:00 1.2M
7C21.pdf 01-Mar-2011 19:00 362k
7C46, 7N36, 7N85 & V..> 01-Mar-2011 19:00 160k
7C46.pdf 01-Mar-2011 19:05 13.9M
7D46 & 7D48.pdf 01-Mar-2011 19:01 1.4M
7D48 - E.pdf 01-Mar-2011 19:01 347k
7J21.pdf 01-Mar-2011 19:01 452k
7K32 - E.pdf 01-Mar-2011 19:02 1.6M
7K32L.pdf 01-Mar-2011 19:02 533k
7K32M.pdf 01-Mar-2011 19:02 518k
7K36.pdf 01-Mar-2011 19:04 1.9M
7K52 - E.pdf 01-Mar-2011 19:05 2.3M
7K52.pdf 01-Mar-2011 19:05 778k
7L22 - E.pdf 01-Mar-2011 19:05 145k
7L22 Kinetic Chronog..> 01-Mar-2011 19:06 1.6M
7L22J.pdf 01-Mar-2011 19:06 575k
7N93.pdf 01-Mar-2011 19:06 700k
7R68 - E.pdf 01-Mar-2011 19:06 256k
7S25.pdf 01-Mar-2011 19:06 925k
7S26 & 7S36.pdf 01-Mar-2011 19:06 354k
7S26, 7S35 & 7S36 - ..> 01-Mar-2011 19:06 717k
7T11.pdf 01-Mar-2011 19:07 797k
7T27.pdf 01-Mar-2011 19:07 335k
7T32 - E.pdf 01-Mar-2011 19:07 406k
7T32.pdf 01-Mar-2011 19:07 648k
7T34.pdf 01-Mar-2011 19:07 386k
7T52 & 7T59.pdf 01-Mar-2011 19:07 778k
7T62 - E.pdf 01-Mar-2011 19:07 517k
7T62.pdf 01-Mar-2011 19:07 796k
7T82 - E.pdf 01-Mar-2011 19:08 363k
7T82.pdf 01-Mar-2011 19:08 2.2M
7T84 - E.pdf 01-Mar-2011 19:08 1.9M
7T92 - E.pdf 01-Mar-2011 19:09 421k
7T92.pdf 01-Mar-2011 19:09 436k
7T94 - E.pdf 01-Mar-2011 19:09 595k
7T94.pdf 01-Mar-2011 19:09 800k
8B43.pdf 01-Mar-2011 19:15 15.9M
8B53-QM.pdf 01-Mar-2011 19:11 2.9M
8B53.pdf 01-Mar-2011 19:18 17.9M
8B82-QM.pdf 01-Mar-2011 19:16 1.6M
8B82.pdf 01-Mar-2011 19:24 22.3M
8F32 & 8F33.pdf 01-Mar-2011 19:19 704k
8F35 & 8F58.pdf 01-Mar-2011 19:20 1.4M
8F35 - E.pdf 01-Mar-2011 19:20 875k
8F56.pdf 01-Mar-2011 19:21 1.3M
8J41.pdf 01-Mar-2011 19:21 700k
8J42.pdf 01-Mar-2011 19:21 700k
8J55 & 8J56.pdf 01-Mar-2011 19:21 29k
8L35.pdf 01-Mar-2011 19:24 6.0M
8L38.pdf 01-Mar-2011 19:24 815k
8M11.pdf 01-Mar-2011 19:24 689k
8M25, 8M26 - E.pdf 01-Mar-2011 19:25 1.0M
8N40, 8N41, 8N46, 8N..> 01-Mar-2011 19:25 700k
8R28.pdf 01-Mar-2011 19:26 4.0M
8V36 - E.pdf 01-Mar-2011 19:25 360k
9530, 9531, 9533, 95..> 01-Mar-2011 19:25 700k
9F61, 9F62, 9F82 & 9..> 01-Mar-2011 19:26 552k
9F83.pdf 01-Mar-2011 19:26 576k
9R65.pdf 01-Mar-2011 19:27 3.2M
9R66.pdf 01-Mar-2011 19:27 1.2M
9R86.pdf 01-Mar-2011 19:29 5.0M
9S51 & 9S55.pdf 01-Mar-2011 19:28 1.7M
9S54.pdf 01-Mar-2011 19:28 313k
9S56_01.pdf 01-Mar-2011 19:29 1.8M
9S56_02.pdf 01-Mar-2011 19:29 622k
9S67.pdf 01-Mar-2011 19:29 1.3M
9S85.pdf 01-Mar-2011 19:30 1.2M
9T82 - E.pdf 01-Mar-2011 19:30 310k
9T82.pdf 01-Mar-2011 19:30 949k
A860.pdf 01-Mar-2011 19:30 773k
A861.pdf 01-Mar-2011 19:30 230k
A862.pdf 01-Mar-2011 19:30 773k
AQ_Mecha_Basic.pdf 01-Mar-2011 19:30 266k
DH33.pdf 01-Mar-2011 19:31 428k
G300.pdf 01-Mar-2011 19:35 9.9M
G510.pdf 01-Mar-2011 19:31 747k
H021 & H022 - E.pdf 01-Mar-2011 19:32 2.8M
H021 & H022.pdf 01-Mar-2011 19:33 811k
H023 - E.pdf 01-Mar-2011 19:36 2.2M
H023.pdf 01-Mar-2011 19:40 4.8M
H024.pdf 01-Mar-2011 19:39 1.9M
H601 & H801 - E.pdf 01-Mar-2011 19:39 150k
L250.pdf 01-Mar-2011 19:39 380k
L251.pdf 01-Mar-2011 19:40 332k
M725 & M726S.pdf 01-Mar-2011 19:40 1.5M
M725 & M726SD.pdf 01-Mar-2011 19:40 776k
M796.pdf 01-Mar-2011 19:41 2.3M
NX04.pdf 01-Mar-2011 19:41 1.6M
NX11 & NX14.pdf 01-Mar-2011 19:42 1.3M
P104 & P106J.pdf 01-Mar-2011 19:42 392k
P108J.pdf 01-Mar-2011 19:42 432k
P114 & P116J.pdf 01-Mar-2011 19:42 575k
P118J.pdf 01-Mar-2011 19:42 575k
S034.pdf 01-Mar-2011 19:43 1.2M
S039.pdf 01-Mar-2011 19:43 604k
S051 & S052.pdf 01-Mar-2011 19:43 970k
S140.pdf 01-Mar-2011 19:45 2.3M
S143.pdf 01-Mar-2011 19:45 2.4M
S149.pdf 01-Mar-2011 19:47 3.8M
S351.pdf 01-Mar-2011 19:47 222k
S640.pdf 01-Mar-2011 19:47 565k
S650 & S650.pdf 01-Mar-2011 19:48 1011k
S651.pdf 01-Mar-2011 19:48 439k
S701.pdf 01-Mar-2011 19:48 414k
S750.pdf 01-Mar-2011 19:51 8.4M
S750Q.pdf 01-Mar-2011 19:49 2.6M
S760.pdf 01-Mar-2011 19:58 20.3M
S800.pdf 01-Mar-2011 19:52 852k
S821.pdf 01-Mar-2011 19:53 2.3M
V072 - E.pdf 01-Mar-2011 20:09 432k
V083.pdf 01-Mar-2011 20:09 1.5M
V085.pdf 01-Mar-2011 20:09 747k
V091.pdf 01-Mar-2011 20:10 1.0M
V110, V145, V181 & V..> 01-Mar-2011 20:10 739k
V145 & V185.pdf 01-Mar-2011 20:10 777k
V145 - E.pdf 01-Mar-2011 20:10 306k
V14J.pdf 01-Mar-2011 20:11 297k
V654.pdf 01-Mar-2011 20:10 532k
V655.pdf 01-Mar-2011 20:11 523k
V657 - E.pdf 01-Mar-2011 20:11 845k
V657.pdf 01-Mar-2011 20:11 532k
VV14J.pdf 01-Mar-2011 20:11 378k
W060.pdf 01-Mar-2011 20:11 51k
W061.pdf 01-Mar-2011 20:11 122k
W062.pdf 01-Mar-2011 20:11 135k
W100.pdf 01-Mar-2011 20:11 174k
W110.pdf 01-Mar-2011 20:11 161k
W170.pdf 01-Mar-2011 20:12 512k
W208.pdf 01-Mar-2011 20:12 26k
W359.pdf 01-Mar-2011 20:12 696k
W36 & W37.pdf 01-Mar-2011 20:14 8.0M
W440.pdf 01-Mar-2011 20:12 871k
W442.pdf 01-Mar-2011 20:13 551k
W444.pdf 01-Mar-2011 20:14 630k
W520.pdf 01-Mar-2011 20:14 105k
W522.pdf 01-Mar-2011 20:14 132k
W524.pdf 01-Mar-2011 20:14 689k
W543.pdf 01-Mar-2011 20:15 412k
W561.pdf 01-Mar-2011 20:15 1.3M
W570.pdf 01-Mar-2011 20:15 833k
W580.pdf 01-Mar-2011 20:15 597k
W610.pdf 01-Mar-2011 20:15 67k
W620.pdf 01-Mar-2011 20:15 1.1M
W626.pdf 01-Mar-2011 20:15 230k
W680.pdf 01-Mar-2011 20:16 751k
W700.pdf 01-Mar-2011 20:16 295k
W710.pdf 01-Mar-2011 20:19 9.2M
W720.pdf 01-Mar-2011 20:16 526k
W750.pdf 01-Mar-2011 20:16 307k
W754.pdf 01-Mar-2011 20:17 717k
W760.pdf 01-Mar-2011 20:17 571k
W770J.pdf 01-Mar-2011 20:18 2.1M
W771.pdf 01-Mar-2011 20:19 2.4M
W780.pdf 01-Mar-2011 20:19 594k
W803.pdf 01-Mar-2011 20:19 561k
W804.pdf 01-Mar-2011 20:20 306k
W820.pdf 01-Mar-2011 20:20 743k
W850.pdf 01-Mar-2011 20:20 308k
W851.pdf 01-Mar-2011 20:20 323k
W852.pdf 01-Mar-2011 20:20 317k
W853.pdf 01-Mar-2011 20:20 256k
W853T.pdf 01-Mar-2011 20:20 261k
W854.pdf 01-Mar-2011 20:20 321k
W855.pdf 01-Mar-2011 20:20 260k
Y15W.pdf 01-Mar-2011 20:20 37k
Y182 - E.pdf 01-Mar-2011 20:21 382k
Y182.pdf 01-Mar-2011 20:21 648k
Y187 - E.pdf 01-Mar-2011 20:21 453k
Y717.pdf 01-Mar-2011 20:21 92k
Y731.pdf 01-Mar-2011 20:21 16k
Y735.pdf 01-Mar-2011 20:21 68k

SEIKO_2A27_4J27_7C17..> 01-Mar-2011 19:58 160k
SEIKO_3M22_5M42_5M43..> 01-Mar-2011 19:58 257k
SEIKO_3M62_5M62_5M63..> 01-Mar-2011 19:58 214k
SEIKO_4F32_8F32_8F33..> 01-Mar-2011 19:58 119k
SEIKO_4F56_8F56.pdf 01-Mar-2011 19:59 1.3M
SEIKO_5D44_E.pdf 01-Mar-2011 19:59 1.7M
SEIKO_5J22.pdf 01-Mar-2011 19:59 209k
SEIKO_5J32C_E.pdf 01-Mar-2011 19:59 206k
SEIKO_5R64_5R65.pdf 01-Mar-2011 19:59 249k
SEIKO_5R66_5R67.pdf 01-Mar-2011 19:59 492k
SEIKO_5Y67_E.pdf 01-Mar-2011 19:59 224k
SEIKO_5Y75_E.pdf 01-Mar-2011 19:59 272k
SEIKO_5Y89.pdf 01-Mar-2011 19:59 211k
SEIKO_6A32_E.pdf 01-Mar-2011 19:59 146k
SEIKO_6M15_E.pdf 01-Mar-2011 20:00 1.0M
SEIKO_6M25_6M26.pdf 01-Mar-2011 20:00 588k
SEIKO_6R15_0405.pdf 01-Mar-2011 20:00 500k
SEIKO_6R20_E.pdf 01-Mar-2011 20:00 818k
SEIKO_6S37.pdf 01-Mar-2011 20:02 3.4M
SEIKO_6r15.pdf 01-Mar-2011 20:00 844k
SEIKO_7002.pdf 01-Mar-2011 20:01 530k
SEIKO_7549.pdf 01-Mar-2011 20:02 2.8M
SEIKO_7A38.pdf 01-Mar-2011 20:02 1.3M
SEIKO_7C46_7N36_7N85..> 01-Mar-2011 20:02 160k
SEIKO_7D48_E.pdf 01-Mar-2011 20:02 347k
SEIKO_7K32.pdf 01-Mar-2011 20:03 1.6M
SEIKO_7K52.pdf 01-Mar-2011 20:03 2.3M
SEIKO_7L22.pdf 01-Mar-2011 20:03 145k
SEIKO_7R68.pdf 01-Mar-2011 20:03 256k
SEIKO_7S26_35_36.pdf 01-Mar-2011 20:04 717k
SEIKO_7T32.pdf 01-Mar-2011 20:04 406k
SEIKO_7T62.pdf 01-Mar-2011 20:04 517k
SEIKO_7T82.pdf 01-Mar-2011 20:04 363k
SEIKO_7T84_E_0525.pdf 01-Mar-2011 20:05 1.9M
SEIKO_7T92.pdf 01-Mar-2011 20:05 421k
SEIKO_7T94_E.pdf 01-Mar-2011 20:05 595k
SEIKO_8F35.pdf 01-Mar-2011 20:05 875k
SEIKO_8M25_8M26.pdf 01-Mar-2011 20:06 1.0M
SEIKO_8V36.pdf 01-Mar-2011 20:06 360k
SEIKO_9T82.pdf 01-Mar-2011 20:06 310k
SEIKO_COMPASS.pdf 01-Mar-2011 20:06 199k
SEIKO_H021_H022.pdf 01-Mar-2011 20:07 2.8M
SEIKO_H023.pdf 01-Mar-2011 20:08 3.1M
SEIKO_H601_801_E.pdf 01-Mar-2011 20:07 150k
SEIKO_MAPMETER_E.pdf 01-Mar-2011 20:07 1.1M
SEIKO_Telemeter.pdf 01-Mar-2011 20:08 373k
SEIKO_V072.pdf 01-Mar-2011 20:08 432k
SEIKO_V145_E.pdf 01-Mar-2011 20:08 306k
SEIKO_V657.pdf 01-Mar-2011 20:08 845k
SEIKO_Y182.pdf 01-Mar-2011 20:08 382k
SEIKO_Y187.pdf 01-Mar-2011 20:09 453k
Seiko Rotary Slide Rule.> 01-Mar-2011 19:58 13.2M

SEIKO_2A27_4J27_7C17..> 01-Mar-2011 19:58 160k
SEIKO_3M22_5M42_5M43..> 01-Mar-2011 19:58 257k
SEIKO_3M62_5M62_5M63..> 01-Mar-2011 19:58 214k
SEIKO_4F32_8F32_8F33..> 01-Mar-2011 19:58 119k
SEIKO_4F56_8F56.pdf 01-Mar-2011 19:59 1.3M
SEIKO_5D44_E.pdf 01-Mar-2011 19:59 1.7M
SEIKO_5J22.pdf 01-Mar-2011 19:59 209k
SEIKO_5J32C_E.pdf 01-Mar-2011 19:59 206k
SEIKO_5R64_5R65.pdf 01-Mar-2011 19:59 249k
SEIKO_5R66_5R67.pdf 01-Mar-2011 19:59 492k
SEIKO_5Y67_E.pdf 01-Mar-2011 19:59 224k
SEIKO_5Y75_E.pdf 01-Mar-2011 19:59 272k
SEIKO_5Y89.pdf 01-Mar-2011 19:59 211k
SEIKO_6A32_E.pdf 01-Mar-2011 19:59 146k
SEIKO_6M15_E.pdf 01-Mar-2011 20:00 1.0M
SEIKO_6M25_6M26.pdf 01-Mar-2011 20:00 588k
SEIKO_6R15_0405.pdf 01-Mar-2011 20:00 500k
SEIKO_6R20_E.pdf 01-Mar-2011 20:00 818k
SEIKO_6S37.pdf 01-Mar-2011 20:02 3.4M
SEIKO_6r15.pdf 01-Mar-2011 20:00 844k
SEIKO_7002.pdf 01-Mar-2011 20:01 530k
SEIKO_7549.pdf 01-Mar-2011 20:02 2.8M
SEIKO_7A38.pdf 01-Mar-2011 20:02 1.3M
SEIKO_7C46_7N36_7N85..> 01-Mar-2011 20:02 160k
SEIKO_7D48_E.pdf 01-Mar-2011 20:02 347k
SEIKO_7K32.pdf 01-Mar-2011 20:03 1.6M
SEIKO_7K52.pdf 01-Mar-2011 20:03 2.3M
SEIKO_7L22.pdf 01-Mar-2011 20:03 145k
SEIKO_7R68.pdf 01-Mar-2011 20:03 256k
SEIKO_7S26_35_36.pdf 01-Mar-2011 20:04 717k
SEIKO_7T32.pdf 01-Mar-2011 20:04 406k
SEIKO_7T62.pdf 01-Mar-2011 20:04 517k
SEIKO_7T82.pdf 01-Mar-2011 20:04 363k
SEIKO_7T84_E_0525.pdf 01-Mar-2011 20:05 1.9M
SEIKO_7T92.pdf 01-Mar-2011 20:05 421k
SEIKO_7T94_E.pdf 01-Mar-2011 20:05 595k
SEIKO_8F35.pdf 01-Mar-2011 20:05 875k
SEIKO_8M25_8M26.pdf 01-Mar-2011 20:06 1.0M
SEIKO_8V36.pdf 01-Mar-2011 20:06 360k
SEIKO_9T82.pdf 01-Mar-2011 20:06 310k
SEIKO_COMPASS.pdf 01-Mar-2011 20:06 199k
SEIKO_H021_H022.pdf 01-Mar-2011 20:07 2.8M
SEIKO_H023.pdf 01-Mar-2011 20:08 3.1M
SEIKO_H601_801_E.pdf 01-Mar-2011 20:07 150k
SEIKO_MAPMETER_E.pdf 01-Mar-2011 20:07 1.1M
SEIKO_Telemeter.pdf 01-Mar-2011 20:08 373k
SEIKO_V072.pdf 01-Mar-2011 20:08 432k
SEIKO_V145_E.pdf 01-Mar-2011 20:08 306k
SEIKO_V657.pdf 01-Mar-2011 20:08 845k
SEIKO_Y182.pdf 01-Mar-2011 20:08 382k
SEIKO_Y187.pdf 01-Mar-2011 20:09 453k
Seiko Rotary Slide Rule.>
avatar
the abyss

Mensagens : 190
Data de inscrição : 26/02/2017

Voltar ao Topo Ir em baixo

Re: Manuais instruções SEIKO

Mensagem por m84 em Ter 21 Mar 2017, 10:27

Acreditas que tenho isso tudo sacado para colocar aqui também mas dividido?? Wink

Se conseguires, coloca na zona dos manuais aqui: http://www.dezdez.pt/f12-catalogos-e-manuais
Se não conseguires, avisa que trato disso.

Abraço,
avatar
m84

Mensagens : 851
Data de inscrição : 07/04/2015

Voltar ao Topo Ir em baixo

Ver o tópico anterior Ver o tópico seguinte Voltar ao Topo

- Tópicos similares

 
Permissão deste fórum:
Você não pode responder aos tópicos neste fórum